Flag for U.S.A. Weather past 2 weeks in Farmington, New Mexico, U.S.A.

Now
57 °F

Clear.


Feels Like: 57 °F
Forecast: 41 / 67 °F
Wind: 3 mph from Northwest

Location: Four Corners Regional Airport

Current Time: Apr 1, 2015 at 9:24:20 PM

Latest Report: Apr 1, 2015 at 8:53 PM


Visibility: 10 mi

Pressure: 29.75 "Hg

Humidity: 19%

Dew point: 15 °F

Location of FarmingtonLocation

Historic Weather in Farmington — Graph

°F

Farmington temperature yesterday

Maximum temperature yesterday: 78 °F (at 3:53 PM)
Minimum temperature yesterday: 39 °F (at 6:53 AM)
Average temperature yesterday: 58 °F

Past Weeks' High & Low Weather Summary

 TemperatureHumidityPressure
High78 °F (Mar 31, 3:53 PM)88% (Mar 21, 6:53 AM)30.32 "Hg (Mar 21, 6:53 AM)
Low25 °F (Mar 26, 4:53 AM)8% (Mar 23, 5:53 PM)29.70 "Hg (Apr 1, 4:53 PM)
Average53 °F34%30.03 "Hg
* Reported Mar 17 7:53 PM — Apr 1 7:53 PM, Farmington, Weather by CustomWeather, © 2015

Note: Actual official high and low records may vary slightly from our data, if they occured in-between our weather recording intervals... More about our weather records

Advertising

Farmington weather history for previous 24 hours

 ConditionsComfort  
Time TempWeatherWind HumidityBarometerVisibility
7:53 PM
Wed, Apr 1
61 °FSunny.9 mph16%29.74 "Hg10 mi
6:53 PM67 °FSunny.10 mph11%29.73 "Hg10 mi
5:53 PM70 °FSunny.15 mph9%29.71 "Hg10 mi
4:53 PM71 °FSunny.20 mph8%29.70 "Hg10 mi
3:53 PM72 °FPassing clouds.21 mph11%29.73 "Hg10 mi
2:53 PM72 °FSunny.21 mph12%29.74 "Hg10 mi
1:53 PM72 °FPassing clouds.28 mph13%29.76 "Hg10 mi
12:53 PM70 °FSunny.17 mph12%29.80 "Hg10 mi
11:53 AM69 °FSunny.23 mph17%29.82 "Hg10 mi
10:53 AM66 °FSunny.22 mph21%29.85 "Hg10 mi
9:53 AM62 °FSunny.No wind29%29.85 "Hg10 mi
8:53 AM57 °FSunny.No wind33%29.85 "Hg10 mi
7:53 AM46 °FClear.5 mph46%29.88 "Hg10 mi
6:53 AM45 °FClear.5 mph45%29.84 "Hg10 mi
5:53 AM50 °FClear.3 mph38%29.80 "Hg10 mi
4:53 AM51 °FClear.5 mph36%29.80 "Hg10 mi
3:53 AM48 °FPassing clouds.5 mph39%29.80 "Hg10 mi
2:53 AM52 °FClear.No wind31%29.80 "Hg10 mi
1:53 AM53 °FClear.No wind28%29.81 "Hg10 mi
12:53 AM51 °FPassing clouds.3 mph31%29.81 "Hg10 mi
11:53 PM
Tue, Mar 31
51 °FPassing clouds.No wind31%29.83 "Hg10 mi
10:53 PM50 °FPassing clouds.7 mph29%29.83 "Hg10 mi
9:53 PM55 °FClear.No wind23%29.84 "Hg10 mi
Weather by CustomWeather, © 2015

See weather overviewHow to use our weather pages